Temp
-15 -17 -19 -19 -19 -19 -19 -19 -23 -24 -24 -24 -24 -24 -21 -21 -19 -19 -18 -18 -19 -18 -17 -17 -17 -16 -15 -15 -15 -15 -14 -13 -13 -13 -14 -14 -13 -12 -11 -11 -11 -10 -10 -10 -9
-15 -18 -19 -19 -19 -20 -20 -20 -23 -24 -24 -24 -24 -24 -24 -21 -21 -19 -19 -18 -19 -19 -18 -17 -17 -17 -16 -16 -16 -15 -15 -13 -13 -14 -13 -14 -14 -13 -12 -11 -11 -10 -10 -10 -10
-14 -18 -19 -19 -19 -20 -20 -20 -21 -25 -25 -25 -25 -25 -25 -23 -21 -20 -19 -19 -18 -19 -18 -18 -18 -17 -17 -16 -16 -16 -14 -14 -14 -14 -14 -14 -14 -13 -13 -12 -11 -10 -10 -10 -9
-15 -18 -19 -19 -19 -19 -19 -20 -21 -25 -26 -26 -25 -25 -24 -24 -22 -21 -20 -19 -19 -19 -19 -18 -18 -17 -16 -16 -16 -16 -15 -15 -15 -14 -14 -14 -14 -13 -13 -12 -12 -11 -11 -10 -10
-15 -18 -19 -19 -19 -19 -20 -20 -21 -24 -26 -26 -26 -26 -26 -25 -23 -21 -21 -20 -20 -19 -19 -19 -18 -17 -17 -15 -16 -16 -15 -15 -14 -14 -14 -14 -14 -13 -12 -12 -12 -11 -11 -11 -11
-14 -18 -19 -19 -19 -19 -19 -20 -21 -23 -26 -26 -26 -26 -25 -25 -24 -22 -21 -20 -19 -19 -19 -19 -18 -18 -17 -16 -17 -16 -16 -15 -15 -15 -14 -14 -14 -13 -14 -12 -12 -11 -12 -12 -11
-14 -17 -19 -19 -19 -20 -19 -20 -21 -23 -25 -26 -26 -25 -25 -25 -24 -22 -21 -20 -20 -19 -19 -19 -19 -18 -17 -17 -18 -17 -16 -16 -16 -15 -15 -14 -14 -14 -13 -13 -12 -12 -12 -12 -11
-13 -17 -18 -19 -19 -19 -20 -20 -21 -22 -25 -26 -26 -25 -25 -25 -24 -24 -21 -20 -20 -20 -19 -19 -19 -19 -18 -18 -18 -17 -17 -17 -16 -15 -15 -15 -14 -13 -14 -13 -13 -12 -12 -12 -12
-13 -17 -18 -19 -19 -19 -19 -20 -21 -22 -24 -25 -25 -26 -25 -25 -24 -24 -21 -21 -20 -20 -19 -19 -19 -19 -18 -18 -18 -17 -17 -16 -16 -16 -15 -15 -14 -14 -13 -13 -13 -13 -12 -12 -13
-13 -16 -18 -18 -18 -19 -19 -19 -20 -21 -22 -24 -25 -25 -25 -25 -25 -24 -22 -21 -20 -20 -20 -19 -18 -18 -18 -17 -16 -15 -16 -16 -16 -16 -15 -15 -15 -14 -14 -13 -13 -13 -13 -12 -12
-13 -15 -17 -18 -18 -19 -19 -19 -20 -21 -22 -24 -25 -26 -25 -25 -24 -23 -22 -20 -20 -20 -20 -19 -18 -17 -17 -17 -17 -17 -18 -17 -16 -17 -15 -15 -15 -14 -14 -13 -13 -13 -13 -13 -13
-12 -14 -17 -18 -18 -19 -18 -19 -19 -20 -22 -23 -25 -25 -25 -25 -25 -23 -22 -21 -20 -19 -19 -19 -19 -18 -18 -18 -17 -17 -18 -17 -17 -17 -17 -16 -15 -15 -14 -14 -13 -13 -13 -13 -13
-12 -14 -17 -17 -18 -18 -18 -18 -19 -20 -21 -22 -24 -25 -25 -25 -24 -23 -22 -21 -20 -19 -19 -19 -18 -18 -18 -18 -18 -18 -18 -18 -17 -17 -17 -17 -15 -14 -14 -14 -14 -13 -13 -14 -13
-12 -14 -16 -17 -18 -18 -18 -18 -19 -20 -21 -22 -24 -25 -25 -25 -24 -23 -22 -21 -20 -19 -19 -19 -19 -18 -18 -18 -18 -18 -18 -18 -18 -18 -17 -17 -15 -15 -15 -15 -14 -13 -13 -13 -13
-11 -13 -16 -18 -18 -19 -18 -18 -18 -20 -21 -21 -23 -24 -25 -25 -24 -23 -22 -20 -20 -20 -19 -19 -19 -18 -19 -18 -18 -18 -18 -18 -18 -17 -17 -16 -15 -14 -15 -15 -14 -14 -14 -14 -14
-10 -13 -16 -17 -18 -19 -18 -18 -18 -19 -20 -21 -21 -23 -24 -24 -24 -23 -22 -22 -21 -20 -19 -19 -19 -19 -19 -19 -19 -18 -18 -18 -18 -17 -17 -17 -16 -15 -15 -15 -15 -15 -15 -14 -14
-10 -12 -16 -17 -18 -19 -19 -18 -19 -19 -19 -20 -20 -22 -23 -23 -23 -23 -22 -22 -20 -20 -19 -19 -19 -19 -19 -19 -18 -18 -18 -18 -18 -18 -17 -16 -16 -14 -15 -15 -16 -15 -15 -14 -14
-10 -12 -15 -17 -18 -19 -19 -19 -19 -19 -18 -20 -20 -21 -22 -22 -22 -22 -22 -21 -20 -19 -20 -19 -19 -19 -18 -18 -18 -18 -18 -18 -17 -17 -16 -16 -16 -15 -16 -16 -17 -16 -15 -15 -15
-10 -12 -15 -17 -18 -19 -19 -19 -19 -19 -19 -19 -20 -20 -21 -21 -21 -21 -21 -20 -20 -19 -19 -19 -19 -18 -18 -18 -18 -18 -17 -17 -17 -17 -17 -16 -16 -16 -17 -17 -17 -17 -16 -16 -16
-10 -11 -14 -16 -18 -19 -19 -19 -19 -19 -19 -19 -20 -20 -20 -21 -21 -21 -20 -20 -20 -20 -19 -19 -19 -19 -18 -18 -18 -18 -18 -18 -17 -17 -17 -16 -16 -16 -17 -17 -16 -17 -17 -17 -16
-10 -11 -14 -16 -18 -19 -20 -20 -19 -19 -19 -19 -19 -20 -20 -21 -21 -21 -20 -20 -20 -19 -19 -19 -19 -18 -18 -18 -18 -18 -18 -17 -18 -18 -17 -17 -17 -17 -17 -17 -17 -16 -17 -17 -17
-10 -10 -12 -16 -18 -20 -20 -20 -20 -19 -19 -19 -19 -19 -20 -20 -20 -20 -20 -19 -20 -19 -19 -19 -19 -19 -19 -19 -19 -18 -18 -19 -18 -18 -18 -18 -16 -17 -17 -17 -17 -17 -17 -17 -17
-10 -10 -12 -16 -18 -20 -20 -20 -20 -20 -20 -19 -19 -19 -19 -19 -20 -20 -19 -19 -19 -19 -20 -20 -19 -19 -19 -19 -18 -18 -19 -19 -19 -19 -18 -18 -16 -17 -18 -18 -18 -18 -17 -17 -17
-11 -10 -12 -15 -17 -20 -21 -20 -20 -20 -20 -20 -19 -19 -19 -19 -19 -19 -19 -19 -19 -19 -19 -19 -19 -19 -19 -19 -19 -19 -19 -19 -19 -19 -18 -17 -18 -18 -19 -18 -18 -18 -18 -18 -18
-11 -11 -11 -15 -18 -19 -21 -21 -21 -20 -20 -20 -20 -19 -19 -19 -19 -19 -19 -19 -19 -19 -19 -18 -18 -19 -19 -18 -19 -19 -19 -18 -18 -18 -18 -18 -18 -19 -19 -19 -18 -18 -19 -19 -18
-12 -11 -11 -14 -18 -19 -21 -21 -21 -21 -21 -20 -20 -20 -20 -19 -19 -19 -19 -19 -19 -19 -19 -19 -19 -19 -19 -19 -19 -19 -18 -19 -19 -19 -18 -18 -17 -18 -18 -18 -18 -18 -19 -19 -19
-12 -12 -11 -14 -17 -19 -20 -21 -21 -21 -21 -20 -20 -20 -20 -20 -19 -19 -19 -19 -20 -20 -19 -19 -19 -19 -20 -20 -19 -19 -19 -19 -19 -19 -19 -18 -18 -18 -18 -18 -18 -18 -18 -19 -19
Height
5672 5659 5650 5641 5630 5616 5599 5579 5568 5565 5565 5567 5568 5572 5581 5593 5605 5615 5630 5645 5653 5662 5673 5681 5691 5700 5708 5717 5726 5735 5740 5752 5765 5774 5780 5784 5790 5796 5804 5811 5817 5823 5832 5839 5842
5666 5655 5645 5637 5624 5610 5594 5577 5565 5562 5561 5562 5563 5565 5568 5581 5592 5604 5621 5629 5639 5653 5663 5674 5684 5693 5701 5709 5716 5723 5733 5750 5762 5767 5771 5777 5784 5790 5799 5802 5810 5817 5825 5831 5837
5662 5651 5642 5633 5620 5607 5592 5577 5563 5557 5556 5557 5558 5560 5563 5568 5580 5597 5610 5620 5629 5643 5656 5666 5674 5684 5693 5702 5711 5720 5732 5743 5751 5755 5762 5767 5776 5782 5789 5796 5804 5813 5820 5827 5831
5659 5649 5639 5629 5618 5606 5592 5577 5563 5553 5552 5552 5554 5555 5558 5562 5574 5588 5600 5611 5623 5635 5648 5658 5669 5680 5689 5697 5707 5714 5726 5734 5743 5746 5754 5763 5770 5776 5783 5790 5799 5809 5816 5823 5828
5655 5646 5638 5627 5618 5606 5593 5579 5565 5554 5551 5551 5552 5550 5552 5556 5564 5579 5590 5601 5617 5629 5643 5654 5666 5676 5685 5694 5702 5710 5719 5727 5735 5743 5748 5757 5765 5771 5777 5783 5792 5803 5811 5817 5823
5653 5644 5637 5627 5617 5607 5593 5581 5568 5557 5553 5552 5551 5549 5550 5553 5558 5572 5586 5600 5614 5625 5638 5650 5662 5672 5680 5689 5697 5707 5712 5720 5729 5737 5744 5750 5761 5764 5773 5779 5786 5796 5804 5810 5816
5651 5641 5635 5627 5617 5608 5595 5584 5571 5561 5555 5553 5551 5549 5551 5554 5557 5568 5583 5594 5609 5622 5635 5646 5658 5667 5676 5684 5692 5700 5707 5715 5720 5729 5737 5744 5752 5761 5770 5772 5779 5788 5797 5804 5810
5651 5639 5633 5627 5619 5609 5597 5586 5575 5563 5557 5554 5552 5550 5552 5556 5561 5569 5579 5595 5609 5619 5633 5643 5653 5663 5671 5680 5687 5694 5702 5707 5719 5726 5731 5737 5749 5759 5764 5766 5772 5780 5788 5795 5803
5650 5639 5632 5626 5620 5610 5600 5589 5579 5568 5559 5555 5553 5552 5553 5557 5563 5568 5581 5596 5608 5618 5632 5643 5650 5658 5667 5675 5682 5689 5697 5705 5714 5721 5726 5734 5743 5744 5753 5761 5766 5772 5779 5786 5793
5651 5639 5631 5626 5620 5612 5602 5592 5583 5573 5564 5557 5554 5556 5554 5557 5561 5570 5581 5595 5606 5615 5630 5639 5647 5656 5664 5672 5682 5687 5697 5706 5715 5722 5727 5732 5736 5740 5746 5754 5761 5765 5772 5779 5785
5651 5639 5630 5625 5620 5614 5605 5596 5587 5578 5567 5560 5556 5555 5557 5560 5564 5571 5581 5595 5604 5614 5626 5637 5645 5655 5666 5672 5678 5686 5693 5702 5709 5714 5718 5724 5726 5733 5740 5748 5752 5760 5766 5771 5777
5651 5638 5630 5624 5620 5616 5609 5600 5591 5583 5571 5563 5558 5558 5559 5561 5566 5573 5583 5594 5604 5614 5626 5636 5643 5653 5661 5670 5676 5682 5689 5697 5702 5707 5711 5715 5723 5727 5736 5743 5747 5754 5759 5765 5772
5651 5638 5628 5623 5619 5616 5611 5603 5594 5585 5576 5568 5562 5561 5563 5565 5569 5576 5585 5596 5606 5617 5627 5635 5645 5650 5659 5667 5674 5681 5687 5693 5700 5704 5707 5710 5716 5725 5733 5735 5741 5746 5754 5760 5763
5649 5638 5628 5623 5620 5616 5612 5606 5597 5589 5581 5575 5567 5566 5566 5568 5571 5577 5586 5598 5604 5617 5627 5635 5641 5648 5656 5665 5672 5679 5685 5690 5694 5699 5706 5708 5715 5722 5726 5729 5734 5742 5749 5754 5757
5649 5637 5627 5622 5619 5617 5615 5608 5602 5594 5587 5581 5573 5570 5570 5572 5575 5580 5590 5599 5611 5619 5628 5634 5642 5648 5655 5663 5671 5677 5682 5687 5692 5698 5703 5707 5711 5723 5721 5727 5737 5741 5743 5748 5751
5650 5638 5628 5623 5618 5616 5614 5611 5607 5600 5593 5587 5580 5577 5576 5576 5580 5585 5594 5602 5609 5618 5627 5635 5642 5647 5655 5663 5671 5675 5680 5684 5689 5694 5699 5702 5705 5718 5719 5726 5728 5729 5735 5738 5742
5651 5637 5627 5621 5619 5616 5615 5613 5610 5603 5599 5594 5588 5584 5585 5585 5590 5595 5600 5608 5615 5623 5630 5635 5642 5648 5655 5662 5669 5674 5678 5682 5688 5690 5694 5699 5704 5716 5715 5718 5722 5725 5728 5732 5737
5652 5639 5628 5622 5617 5615 5615 5615 5612 5608 5602 5599 5596 5592 5593 5595 5599 5601 5606 5612 5618 5625 5631 5636 5642 5648 5654 5661 5667 5671 5677 5681 5684 5687 5691 5696 5703 5708 5711 5714 5715 5717 5719 5724 5728
5652 5640 5628 5621 5616 5615 5616 5615 5613 5611 5607 5603 5601 5599 5599 5602 5606 5609 5612 5617 5623 5628 5634 5639 5645 5650 5653 5660 5667 5671 5675 5679 5683 5686 5691 5695 5700 5703 5704 5706 5706 5709 5713 5717 5720
5653 5639 5628 5620 5615 5613 5614 5615 5614 5613 5612 5608 5606 5604 5603 5606 5610 5613 5618 5621 5627 5632 5637 5641 5647 5651 5655 5660 5665 5670 5675 5677 5680 5684 5687 5691 5695 5697 5698 5700 5702 5703 5706 5709 5712
5654 5640 5628 5619 5612 5612 5612 5613 5614 5613 5614 5613 5611 5610 5608 5610 5613 5616 5620 5626 5631 5635 5639 5643 5649 5653 5656 5659 5663 5667 5668 5671 5676 5678 5680 5685 5689 5692 5692 5693 5695 5696 5698 5701 5704
5656 5642 5628 5615 5611 5608 5610 5611 5612 5613 5614 5615 5614 5614 5614 5614 5617 5620 5623 5628 5632 5637 5640 5643 5646 5649 5654 5658 5660 5662 5664 5667 5669 5674 5677 5678 5682 5683 5685 5684 5686 5689 5691 5693 5696
5656 5643 5626 5614 5609 5606 5607 5609 5610 5612 5613 5615 5615 5616 5617 5619 5621 5623 5625 5629 5633 5636 5638 5642 5644 5648 5650 5654 5656 5658 5661 5663 5666 5669 5671 5671 5674 5676 5679 5678 5678 5682 5684 5685 5687
5655 5641 5624 5613 5606 5603 5604 5606 5608 5610 5612 5614 5615 5616 5618 5620 5622 5624 5627 5629 5631 5634 5637 5640 5643 5645 5648 5650 5652 5653 5656 5658 5659 5659 5663 5662 5665 5670 5670 5669 5669 5670 5674 5676 5678
5654 5641 5623 5613 5604 5600 5600 5602 5604 5607 5610 5612 5614 5616 5617 5619 5620 5623 5625 5628 5630 5632 5634 5637 5639 5641 5642 5645 5647 5648 5648 5650 5650 5655 5653 5660 5659 5662 5662 5661 5661 5662 5664 5667 5669
5653 5641 5623 5610 5602 5598 5597 5599 5603 5605 5607 5610 5612 5615 5616 5617 5620 5621 5622 5624 5627 5629 5631 5633 5635 5636 5638 5640 5641 5642 5645 5646 5647 5650 5647 5653 5654 5652 5654 5654 5654 5655 5657 5660 5663
5652 5640 5623 5610 5602 5598 5595 5596 5599 5601 5604 5607 5610 5613 5615 5616 5618 5620 5621 5622 5624 5626 5627 5629 5631 5633 5635 5636 5636 5639 5641 5641 5642 5644 5644 5643 5650 5647 5649 5649 5650 5649 5650 5652 5654
Wind_Speed
71 51 42 48 46 54 59 62 20 15 21 21 19 25 57 61 60 52 53 61 62 58 57 56 52 50 57 61 48 51 60 58 53 54 55 52 52 52 51 49 48 46 41 39 40
72 43 43 43 48 61 62 66 31 16 17 19 24 24 28 64 60 61 51 62 70 59 57 54 54 52 57 66 54 53 49 56 44 54 57 57 52 53 51 52 50 48 43 41 40
72 40 41 42 51 61 63 64 55 20 19 20 20 27 24 45 65 60 55 62 70 66 58 56 55 54 49 59 63 54 45 44 43 48 56 61 59 54 53 54 51 48 44 41 43
69 41 43 43 51 59 62 64 62 19 17 16 14 21 29 29 60 60 59 58 69 71 60 61 54 53 53 54 57 64 53 55 45 46 56 58 60 59 55 54 52 48 45 42 43
71 45 41 42 48 55 62 62 61 29 7 4 10 10 17 30 46 65 61 56 63 70 63 57 55 51 52 47 62 56 51 51 55 46 50 51 59 55 59 55 53 50 46 43 42
75 44 37 42 44 52 58 58 59 40 9 8 9 9 12 25 32 59 60 56 59 66 67 51 55 51 50 47 50 60 69 49 41 43 51 48 56 52 52 55 55 52 48 46 45
72 45 32 40 44 49 54 52 56 46 16 11 10 8 12 26 21 51 57 55 53 63 68 51 51 52 50 46 45 55 64 62 46 49 40 46 53 59 50 51 53 55 51 48 48
73 45 35 36 42 46 51 48 51 49 24 13 6 3 15 19 28 33 48 54 47 58 57 54 50 48 49 43 45 49 55 57 56 43 44 36 43 52 58 56 52 54 53 51 51
73 46 34 31 39 44 48 47 46 47 34 19 4 2 9 22 35 35 46 41 44 58 55 50 47 48 49 48 45 50 52 53 49 50 43 39 38 49 55 56 58 56 54 54 53
76 48 34 29 33 39 45 46 42 42 41 23 8 4 5 16 22 38 40 41 46 53 57 40 43 49 50 49 40 33 46 45 40 41 45 37 42 50 52 58 60 58 51 50 54
80 55 33 27 28 36 41 43 40 41 40 30 12 6 10 19 19 38 38 45 44 52 58 46 39 35 44 46 43 37 40 42 42 38 46 38 44 47 51 56 53 52 49 45 50
81 57 33 27 22 31 38 37 38 36 37 33 14 5 13 13 18 40 38 40 34 47 45 46 40 33 41 44 45 38 37 41 40 42 44 43 44 48 52 57 54 45 48 46 47
80 60 31 25 23 25 34 34 37 35 35 34 15 4 13 14 19 43 43 37 26 47 33 32 33 39 42 43 42 40 34 35 38 39 42 47 44 44 45 51 61 60 54 52 54
80 64 35 23 21 23 29 30 34 33 32 35 17 5 8 11 19 42 48 47 39 35 28 36 30 34 41 43 38 39 33 34 35 38 34 39 47 40 38 39 47 48 51 45 42
78 70 36 22 21 22 24 25 31 30 26 32 19 8 7 9 23 41 49 49 42 37 29 32 28 34 42 40 37 36 34 34 32 30 34 33 42 46 44 39 43 33 39 50 46
73 74 39 23 18 16 19 21 24 30 23 26 19 11 6 14 22 39 48 45 31 33 29 30 31 34 38 37 34 32 34 34 33 31 28 26 32 33 37 38 34 37 36 46 50
70 76 38 28 17 13 15 18 18 25 25 24 23 11 17 22 34 32 39 40 35 31 30 27 26 28 33 34 35 34 33 32 31 29 29 32 30 34 21 27 28 34 36 41 47
68 73 40 31 17 10 10 12 14 18 27 22 24 13 14 18 20 12 33 38 32 32 22 26 26 31 33 35 39 39 35 31 32 29 24 22 17 15 18 22 28 32 39 39 43
67 72 46 31 21 10 7 8 10 10 18 21 19 20 18 20 15 16 35 35 30 34 26 25 28 31 31 30 30 33 36 31 30 28 23 20 18 21 24 26 29 32 35 40 40
65 69 52 33 22 12 6 4 5 6 9 13 16 15 15 13 15 11 29 35 24 29 27 24 28 25 23 25 26 27 27 30 29 29 26 23 17 20 23 27 33 34 35 37 43
62 70 66 38 21 14 7 5 4 1 3 7 11 14 14 14 15 15 18 31 22 24 20 21 21 26 27 26 26 29 32 33 32 31 29 24 17 18 22 27 32 38 40 37 36
60 69 70 45 20 14 9 9 9 5 4 2 5 10 13 13 15 17 22 24 21 20 20 21 21 25 23 19 21 26 28 29 31 29 25 25 24 23 26 28 31 33 37 39 38
59 68 70 52 18 13 9 10 11 9 6 6 3 4 9 12 17 20 16 18 22 20 21 23 26 25 24 26 29 31 31 29 30 30 31 36 32 30 25 27 27 31 33 37 36
58 68 70 59 25 12 8 9 14 12 10 8 8 6 6 7 10 14 20 21 20 24 24 27 25 25 27 30 30 33 34 36 39 43 42 39 32 21 19 27 32 32 30 33 36
55 63 68 63 33 15 8 11 12 14 14 13 11 10 10 9 8 10 12 14 20 24 24 26 27 26 25 23 25 25 24 29 35 31 32 19 20 17 21 20 23 31 31 32 35
52 60 65 63 36 21 9 14 14 13 15 16 14 13 13 13 12 10 10 12 14 16 18 21 22 23 25 23 23 26 28 28 29 23 27 21 21 21 24 23 25 21 30 33 35
51 58 62 61 44 24 13 12 16 18 18 15 16 15 15 16 14 12 12 13 13 14 17 20 21 22 21 22 22 19 19 24 24 24 25 26 17 22 20 22 21 24 24 31 36
Wind_Direction
349 346 343 345 355 357 359 1 332 275 264 252 248 233 226 219 217 215 217 213 207 209 210 213 214 214 209 211 212 219 216 220 219 219 211 212 210 211 215 219 219 219 217 219 224
352 347 343 0 360 1 3 4 346 264 266 263 238 229 228 216 218 211 208 211 205 208 209 211 212 212 212 207 218 209 221 211 219 220 219 212 212 211 214 218 220 219 216 216 221
351 348 348 353 2 3 3 4 3 279 269 273 257 243 244 213 215 213 206 209 208 201 207 208 210 211 210 214 217 221 208 211 218 223 221 212 211 211 213 218 220 220 218 218 221
353 345 347 354 4 2 3 4 5 330 276 266 264 254 245 217 211 212 212 205 207 202 204 206 209 211 211 213 214 213 209 216 218 219 220 223 215 214 213 219 220 220 220 219 225
351 346 347 356 3 2 2 4 6 357 329 315 298 270 230 220 207 208 212 203 201 205 200 205 204 209 213 212 211 215 204 212 218 223 221 219 212 216 217 220 223 220 222 220 224
354 344 351 355 354 359 1 4 7 8 340 297 308 299 229 193 198 201 210 205 197 208 199 201 201 208 212 217 214 210 215 217 211 207 215 216 217 209 220 223 225 224 224 222 222
353 344 348 359 355 356 1 3 7 12 356 335 325 314 217 191 195 195 204 210 194 205 202 199 202 205 209 212 215 213 219 227 221 226 219 223 216 217 219 225 228 228 225 225 226
354 343 345 357 357 357 1 1 6 11 10 356 333 323 200 185 165 184 196 205 189 199 199 202 200 204 207 208 213 215 218 224 224 216 215 218 219 220 220 225 229 232 228 228 229
357 346 342 349 357 356 359 1 3 9 8 352 323 4 188 203 179 176 193 194 191 199 197 196 200 201 205 207 211 214 217 220 220 223 223 234 219 213 217 220 226 234 234 230 231
0 348 343 349 354 355 358 360 1 6 9 2 357 224 175 191 189 183 186 183 186 196 193 198 206 204 204 207 211 213 215 221 225 221 231 222 225 212 213 215 224 232 232 231 232
357 352 340 346 350 355 359 0 1 5 8 8 10 180 157 159 173 173 182 181 177 196 198 191 212 204 210 208 210 213 217 216 216 216 215 216 219 220 215 208 217 221 228 231 233
356 356 340 341 344 350 360 3 1 4 9 8 15 125 180 198 166 170 173 183 177 189 187 197 208 206 205 208 212 210 213 215 216 224 225 226 218 218 217 215 214 218 223 225 230
353 357 339 337 342 345 357 2 4 5 13 7 11 97 154 191 180 171 166 166 177 177 177 201 202 207 205 206 208 210 212 211 217 221 228 237 222 217 216 220 219 220 228 238 237
351 1 343 332 337 336 347 2 5 5 13 9 7 61 172 173 177 174 168 166 155 164 170 187 188 192 197 203 206 208 209 210 212 222 226 236 236 224 224 222 220 231 229 229 229
350 357 348 330 330 338 348 5 10 10 17 11 14 60 103 169 170 172 173 176 166 182 171 185 189 192 194 199 203 205 206 212 214 219 225 233 240 224 235 229 221 230 229 228 231
351 353 351 332 327 346 351 7 5 15 17 19 25 70 83 149 163 166 172 180 173 174 169 175 183 192 194 195 201 202 207 211 214 218 221 226 238 231 245 245 246 246 236 225 227
351 350 354 342 323 334 351 3 4 19 20 26 33 96 105 128 133 157 172 178 175 165 172 183 190 187 192 195 201 204 209 211 215 219 228 228 237 236 236 241 244 245 243 233 226
351 351 359 351 316 318 336 358 1 20 30 24 47 112 107 131 167 173 173 184 178 173 173 176 184 188 193 201 207 209 211 213 212 215 212 213 211 213 214 226 229 233 240 236 230
350 349 2 353 321 305 315 338 355 18 41 37 33 56 148 119 141 158 169 173 178 176 183 183 182 191 190 195 205 211 217 218 219 221 223 226 215 216 221 227 228 228 233 237 240
351 349 1 4 322 295 289 301 331 7 40 48 51 56 114 163 152 160 187 166 165 165 173 171 183 187 186 189 202 211 218 224 225 231 234 213 210 225 230 231 237 239 240 239 235
353 350 353 7 329 297 275 253 263 294 3 51 61 73 91 140 147 166 179 189 176 171 178 180 188 196 201 206 213 220 223 228 234 233 220 222 241 240 246 241 235 239 242 243 244
354 349 350 358 339 300 272 233 229 223 233 266 84 86 99 138 148 170 164 180 184 197 208 203 197 191 200 216 226 228 225 225 228 227 232 252 251 263 244 250 244 241 245 246 247
356 352 348 358 344 303 261 236 218 221 213 222 205 129 119 125 162 178 200 193 193 200 196 201 209 218 225 227 232 233 234 232 235 242 248 262 264 271 269 264 254 246 254 248 243
355 351 346 354 360 314 244 239 219 224 225 215 215 194 165 149 150 166 190 201 211 225 226 224 227 235 239 238 242 244 246 247 253 257 264 265 267 262 259 253 254 250 250 244 242
354 352 346 353 0 336 246 231 227 221 221 221 216 209 192 190 187 178 184 196 203 208 214 223 231 233 233 239 240 241 236 238 244 251 259 264 257 254 243 254 259 249 241 233 237
355 354 347 348 2 346 302 227 219 213 220 223 221 217 209 207 206 214 214 208 212 217 223 220 221 226 230 237 245 241 238 247 251 252 255 266 250 270 256 256 255 251 239 234 236
353 356 349 349 357 359 338 233 222 216 216 219 219 224 219 215 216 223 231 234 232 229 231 235 242 245 247 249 249 247 252 254 252 252 262 256 264 247 268 267 265 251 240 237 236